Temperature
-2 -2 -2 -2 -2 -2 -2 -2 -2 -2 -2 -2 -2 -2 -2 -2 -1 -1 -2 -2 -2 -2 -2 -2 -1 -2 -2 -2 -1 -1 -1 -1 -1 -1 -0 -0 -0 0 0 0 1 1 1
-3 -3 -3 -3 -3 -3 -3 -3 -3 -2 -2 -2 -2 -3 -2 -2 -2 -2 -2 -2 -2 -2 -2 -2 -2 -2 -2 -2 -2 -2 -2 -2 -2 -2 -1 -1 -1 -1 -1 -0 -0 0 0
-3 -3 -3 -3 -3 -3 -3 -3 -3 -3 -3 -3 -3 -3 -3 -3 -3 -3 -3 -3 -3 -3 -3 -3 -3 -3 -3 -3 -3 -2 -2 -2 -2 -2 -2 -2 -2 -2 -1 -1 -1 -1 -0
-4 -4 -4 -4 -4 -4 -4 -4 -4 -4 -4 -4 -4 -4 -4 -4 -4 -4 -4 -4 -4 -4 -4 -4 -3 -3 -3 -3 -3 -3 -3 -3 -3 -3 -3 -2 -2 -2 -2 -2 -2 -1 -1
-4 -5 -5 -5 -5 -5 -5 -4 -4 -4 -4 -4 -4 -4 -4 -4 -4 -4 -4 -4 -4 -4 -4 -4 -4 -4 -4 -4 -4 -4 -4 -4 -4 -4 -4 -3 -3 -3 -3 -3 -3 -2 -2
-5 -5 -5 -5 -5 -5 -5 -5 -5 -5 -5 -5 -5 -5 -5 -5 -5 -5 -5 -5 -5 -5 -5 -5 -5 -5 -4 -4 -4 -4 -4 -4 -4 -4 -4 -4 -4 -3 -3 -3 -3 -3 -3
-6 -6 -6 -6 -6 -6 -6 -6 -6 -6 -6 -6 -6 -6 -6 -5 -5 -5 -6 -6 -6 -5 -5 -5 -5 -5 -5 -5 -5 -5 -5 -4 -4 -4 -4 -4 -4 -4 -4 -4 -4 -4 -3
-6 -6 -6 -6 -6 -7 -6 -6 -6 -6 -6 -6 -6 -6 -6 -6 -6 -6 -6 -6 -6 -6 -6 -6 -6 -5 -5 -5 -5 -5 -5 -5 -5 -5 -5 -4 -4 -4 -4 -4 -4 -4 -4
-7 -7 -7 -7 -7 -7 -7 -7 -7 -7 -7 -7 -7 -7 -7 -6 -6 -6 -7 -7 -7 -6 -6 -6 -6 -6 -6 -6 -6 -6 -5 -5 -5 -5 -5 -5 -5 -5 -4 -5 -5 -5 -5
-7 -7 -7 -7 -8 -7 -7 -7 -7 -7 -7 -7 -7 -7 -7 -7 -7 -7 -7 -7 -7 -7 -7 -7 -7 -6 -6 -6 -6 -6 -6 -6 -6 -6 -5 -5 -5 -5 -5 -5 -5 -5 -5
-8 -8 -8 -8 -8 -8 -8 -8 -8 -8 -8 -8 -8 -8 -8 -7 -7 -7 -7 -7 -7 -7 -7 -7 -7 -7 -7 -7 -7 -7 -7 -6 -6 -6 -6 -6 -6 -6 -6 -6 -6 -6 -6
-8 -8 -8 -8 -8 -8 -8 -8 -8 -8 -8 -8 -8 -8 -8 -8 -8 -8 -8 -8 -8 -8 -8 -7 -7 -7 -7 -7 -7 -7 -7 -7 -7 -7 -7 -7 -7 -6 -6 -6 -6 -6 -6
-9 -9 -9 -9 -9 -9 -9 -9 -9 -9 -9 -9 -9 -9 -9 -9 -8 -8 -8 -8 -8 -8 -8 -8 -8 -8 -8 -8 -8 -8 -8 -8 -7 -7 -7 -7 -7 -7 -7 -7 -7 -7 -7
-9 -9 -9 -9 -9 -9 -9 -9 -9 -9 -9 -9 -9 -9 -9 -9 -9 -9 -8 -8 -8 -8 -8 -8 -9 -8 -8 -8 -8 -8 -8 -8 -8 -8 -8 -8 -8 -8 -8 -8 -8 -8 -8
-9 -9 -9 -9 -9 -10 -10 -10 -9 -9 -9 -9 -9 -9 -9 -9 -9 -9 -9 -9 -9 -9 -9 -9 -9 -9 -9 -9 -9 -9 -9 -9 -9 -9 -9 -9 -9 -9 -9 -9 -9 -9 -9
-10 -10 -10 -10 -10 -10 -10 -10 -10 -10 -9 -10 -10 -10 -10 -9 -9 -9 -9 -9 -9 -9 -9 -9 -9 -9 -9 -9 -9 -9 -9 -9 -9 -9 -9 -9 -9 -10 -9 -9 -9 -9 -9
-10 -10 -10 -10 -10 -10 -10 -10 -10 -10 -10 -10 -10 -10 -10 -10 -10 -10 -9 -9 -9 -9 -9 -9 -10 -10 -10 -10 -10 -10 -10 -10 -10 -10 -10 -10 -10 -10 -10 -10 -10 -10 -10
-10 -11 -11 -11 -11 -11 -11 -11 -11 -11 -11 -10 -10 -10 -10 -10 -10 -10 -10 -10 -10 -10 -10 -10 -10 -10 -10 -10 -10 -10 -10 -10 -10 -10 -11 -11 -11 -11 -11 -11 -11 -10 -10
-11 -11 -11 -11 -11 -11 -11 -11 -11 -11 -11 -11 -11 -10 -10 -11 -10 -10 -10 -10 -10 -10 -10 -10 -10 -10 -10 -10 -10 -10 -11 -11 -11 -11 -11 -11 -11 -11 -11 -11 -11 -11 -11
-11 -11 -11 -12 -12 -12 -12 -12 -12 -12 -12 -12 -11 -11 -11 -11 -11 -11 -11 -11 -11 -11 -10 -10 -10 -10 -10 -11 -11 -11 -11 -11 -11 -11 -11 -11 -11 -11 -11 -11 -12 -12 -11
-12 -12 -12 -12 -12 -12 -12 -12 -12 -12 -12 -12 -12 -12 -12 -12 -12 -12 -12 -11 -11 -11 -11 -11 -11 -11 -11 -11 -11 -11 -11 -12 -12 -12 -12 -12 -12 -12 -12 -12 -12 -12 -12
-12 -12 -12 -12 -13 -13 -13 -12 -13 -13 -13 -13 -12 -12 -12 -12 -12 -12 -12 -12 -12 -11 -11 -11 -11 -11 -11 -11 -11 -12 -12 -12 -12 -12 -12 -12 -12 -12 -12 -12 -12 -12 -12
-13 -13 -13 -13 -13 -13 -13 -13 -13 -13 -13 -13 -13 -13 -13 -13 -13 -12 -12 -12 -12 -12 -12 -12 -12 -12 -11 -11 -11 -12 -12 -12 -12 -12 -12 -12 -12 -12 -12 -12 -12 -12 -12
-13 -13 -13 -13 -13 -13 -13 -13 -13 -13 -13 -13 -13 -13 -13 -13 -13 -13 -13 -13 -13 -12 -12 -12 -12 -12 -12 -12 -12 -12 -12 -12 -12 -12 -12 -12 -12 -12 -12 -12 -13 -13 -13
-13 -13 -14 -14 -14 -14 -14 -14 -14 -14 -14 -14 -14 -14 -14 -14 -13 -13 -13 -13 -13 -13 -13 -13 -12 -12 -12 -12 -12 -12 -12 -12 -12 -12 -12 -13 -13 -13 -13 -13 -13 -13 -13
-13 -14 -14 -14 -14 -14 -14 -14 -14 -14 -14 -14 -14 -14 -14 -14 -14 -14 -14 -14 -13 -13 -13 -13 -13 -13 -13 -12 -12 -12 -12 -12 -12 -13 -13 -13 -13 -13 -13 -13 -13 -13 -13
Wind_Speed
4 4 4 4 4 4 4 4 4 3 4 4 5 5 5 5 4 5 5 5 6 5 5 6 6 5 4 4 4 4 4 3 6 5 4 3 4 4 6 6 7 6 8
4 4 4 4 3 4 4 4 3 4 4 4 4 5 5 5 5 5 6 6 6 6 6 6 7 6 6 5 5 5 5 4 5 7 5 4 5 5 5 5 6 7 7
4 4 4 4 4 4 4 4 4 4 4 5 5 5 5 5 5 6 6 6 6 6 7 7 7 7 7 6 6 6 5 5 4 5 6 4 4 4 4 5 5 5 7
3 4 4 4 4 4 4 4 4 5 5 5 5 6 6 6 6 6 6 6 6 6 7 7 8 8 8 7 7 7 5 5 4 5 5 5 5 4 4 4 4 4 4
4 4 4 4 4 4 4 5 5 5 6 5 5 5 5 5 6 6 6 6 6 6 7 7 8 9 10 9 8 7 6 6 5 5 6 6 5 4 5 4 5 4 4
4 4 4 4 4 5 5 4 4 5 5 5 6 6 6 6 8 9 7 6 6 7 7 7 8 9 11 12 13 12 11 9 8 7 6 7 7 6 5 5 5 4 5
4 5 4 5 5 5 5 5 5 5 5 5 6 6 6 7 9 9 10 7 7 7 7 7 7 8 9 7 9 10 11 13 12 9 8 8 8 7 6 7 6 6 6
5 5 5 5 5 5 5 5 5 4 5 5 6 6 6 7 9 9 9 7 6 7 7 8 8 7 8 7 7 7 8 8 10 8 8 8 8 7 8 8 7 6 5
5 5 5 5 5 5 5 5 4 4 4 5 5 5 6 7 9 10 9 5 6 7 7 8 8 8 11 11 7 7 7 7 9 11 12 11 11 12 9 5 5 5 6
5 5 5 5 5 6 6 5 4 4 5 5 5 5 6 6 9 10 9 6 6 6 6 7 11 11 12 11 8 7 8 7 6 6 7 8 8 8 10 7 6 6 5
4 4 5 5 5 5 5 4 4 4 4 5 5 5 6 7 9 11 11 6 6 6 6 6 6 11 11 12 10 8 9 7 5 5 5 5 5 5 6 6 6 6 6
4 4 4 4 4 4 4 3 4 4 4 4 4 5 5 6 8 10 11 10 8 6 6 6 6 10 10 10 9 8 9 7 3 4 4 4 4 4 4 5 6 6 6
4 4 4 4 4 4 4 4 4 4 4 4 4 4 4 4 6 10 11 11 10 7 6 9 9 10 9 7 8 9 7 4 4 4 5 4 4 4 3 3 4 4 5
4 4 4 4 3 3 3 4 4 4 4 5 5 5 4 4 4 5 5 6 8 7 5 7 9 9 7 7 6 5 4 4 5 5 4 3 3 3 3 3 3 3 3
3 3 3 3 3 3 3 3 4 4 5 5 5 4 5 5 7 8 6 5 5 6 5 4 4 4 5 5 4 4 4 4 4 4 4 3 3 4 3 3 3 3 4
3 3 3 3 3 3 3 3 4 5 7 8 7 7 6 7 8 9 9 9 9 8 6 5 5 5 5 5 5 5 4 4 4 4 4 4 4 4 4 3 3 4 5
3 3 2 2 3 3 3 2 3 4 5 5 6 7 6 7 7 8 8 8 8 7 5 5 5 6 6 6 5 5 5 5 4 4 4 4 4 4 4 4 4 5 5
3 3 3 2 2 2 2 2 2 2 3 3 4 6 6 6 7 7 6 5 4 4 4 5 5 5 5 5 5 5 5 4 4 4 5 5 5 5 5 5 5 5 5
3 2 2 2 2 2 2 2 2 2 2 3 3 4 5 6 6 6 4 3 3 3 4 4 4 5 5 5 5 5 5 5 5 5 5 5 5 5 5 6 5 7 6
2 3 3 1 1 1 1 2 2 2 2 3 3 3 3 3 3 3 3 2 3 3 3 3 4 5 5 5 5 5 5 5 5 5 5 5 5 5 5 6 5 5 6
3 3 4 3 2 2 2 2 2 2 2 3 3 5 6 3 3 3 3 3 2 2 2 2 3 3 4 4 4 5 5 5 5 5 5 5 5 5 5 5 5 5 5
2 2 2 2 2 2 2 1 2 2 2 3 3 4 7 3 2 2 3 3 2 2 2 2 3 3 4 4 5 5 6 6 6 5 5 5 5 5 5 5 5 5 5
2 2 2 2 2 3 3 2 2 2 2 3 3 3 3 3 3 3 3 3 3 3 3 3 3 4 4 5 5 5 6 6 6 6 5 5 5 5 5 5 6 6 7
2 2 2 2 2 2 2 2 2 3 3 3 3 3 3 3 3 4 4 4 3 3 3 3 4 5 5 5 6 7 7 8 7 7 7 6 6 5 5 5 6 7 7
2 2 2 2 2 2 2 2 3 3 3 3 3 3 4 4 4 4 4 4 4 3 4 4 4 5 6 7 7 8 10 11 10 8 7 6 6 6 6 6 6 7 7
2 3 2 2 2 2 2 3 3 3 3 4 4 4 4 4 4 4 4 4 4 4 4 4 4 5 6 7 8 10 11 11 11 10 7 6 6 6 6 6 7 7 7
Wind_Direction
221 221 225 222 224 218 218 222 235 246 229 219 220 220 222 223 223 215 221 222 225 228 236 234 230 226 227 227 227 230 241 244 260 273 273 266 275 281 284 280 278 271 259
221 221 224 224 220 220 225 225 234 240 242 229 223 223 224 226 223 222 223 224 226 229 231 232 237 231 229 231 228 231 237 242 252 271 277 269 268 262 268 273 278 266 264
221 215 219 223 221 226 229 227 231 237 245 236 226 226 229 227 226 230 227 227 228 232 232 230 235 233 230 230 230 233 237 245 244 255 270 273 269 261 267 273 273 272 270
228 218 221 226 227 228 227 226 228 231 237 233 231 229 232 231 229 230 230 230 229 234 236 236 235 234 234 229 231 230 233 237 236 241 258 260 262 258 252 263 277 276 269
235 230 233 234 232 233 227 226 229 232 240 238 233 232 233 230 230 228 226 227 227 231 235 239 239 238 242 240 234 226 227 230 232 240 248 260 258 252 249 255 266 278 269
241 242 240 236 234 233 231 226 227 231 236 233 231 229 234 239 239 237 234 231 229 231 235 237 239 240 244 250 247 242 236 229 228 235 246 247 249 250 251 259 262 270 271
244 244 242 235 233 233 233 229 228 230 233 235 232 228 232 237 237 239 240 238 234 233 236 235 240 240 242 238 244 248 249 249 244 237 236 241 246 245 246 251 251 256 269
246 241 241 240 238 236 234 234 232 234 233 235 235 231 235 239 239 241 243 240 237 237 237 234 235 236 237 239 233 234 239 245 250 248 241 241 246 243 238 243 250 259 276
251 249 244 241 240 238 237 237 235 236 237 238 239 233 235 239 241 243 244 238 240 242 240 235 234 232 239 243 235 231 238 247 258 261 261 259 260 261 257 254 247 251 271
256 258 254 244 240 238 238 240 238 236 237 239 245 238 236 237 242 243 242 233 240 243 241 239 241 240 239 238 228 224 233 239 242 260 262 262 260 258 258 245 233 239 259
270 262 257 249 244 242 238 236 229 233 233 236 244 245 238 240 244 244 242 234 235 236 236 238 240 246 244 241 241 233 240 243 233 241 251 249 245 242 242 242 236 233 243
272 263 258 255 249 245 235 235 229 224 227 234 240 247 244 240 245 245 246 247 244 236 236 236 239 248 249 247 245 246 251 251 234 233 242 247 243 245 243 239 245 249 250
270 261 257 259 255 249 237 231 231 224 226 237 239 245 251 247 247 252 249 249 250 247 244 243 245 246 246 247 252 251 247 234 222 230 239 244 243 245 249 251 261 268 272
266 258 253 252 252 247 243 234 229 227 230 236 239 244 252 254 250 248 238 242 249 255 253 245 246 246 245 245 247 246 235 232 230 231 236 243 249 252 255 257 259 255 270
274 254 249 247 245 243 247 244 242 235 234 239 241 242 242 248 252 259 256 240 232 236 234 228 226 222 218 217 223 225 225 232 239 232 231 238 246 251 259 257 252 246 251
278 258 248 249 246 244 251 275 273 265 266 265 262 263 262 263 268 270 271 264 257 246 240 226 221 218 217 217 218 220 219 224 231 230 229 233 238 244 253 254 248 244 247
269 267 254 248 247 250 250 254 278 289 282 278 274 274 276 277 277 279 278 270 259 248 241 228 221 218 217 217 218 219 222 222 224 225 227 230 237 240 240 245 247 251 252
280 275 268 252 253 257 261 265 261 267 287 297 295 289 293 294 295 294 291 284 258 247 237 231 224 217 215 216 218 219 218 218 219 223 225 226 227 231 234 240 242 247 252
287 272 271 264 261 266 271 275 274 277 282 292 304 301 302 308 306 300 295 273 250 248 241 231 226 215 212 214 218 218 216 219 222 223 223 222 223 225 234 239 244 255 258
317 310 314 291 274 273 272 276 283 287 291 291 289 293 305 308 308 308 297 280 264 254 247 235 231 219 211 211 212 213 216 219 219 221 225 226 226 227 235 242 245 248 251
332 325 322 323 305 291 284 282 285 287 294 299 297 295 302 306 295 293 295 290 275 262 258 247 237 226 213 207 206 211 217 221 221 221 225 226 226 230 236 240 245 251 255
331 326 319 311 314 310 304 299 299 296 296 302 310 308 310 321 315 307 305 301 293 272 252 239 235 228 220 211 208 213 220 223 223 222 225 226 229 232 234 238 245 250 252
332 331 329 326 325 317 326 326 317 311 307 308 310 313 319 322 316 312 311 311 305 291 263 241 240 238 231 229 227 220 223 226 227 224 223 227 230 233 233 236 241 249 250
331 326 321 323 328 326 322 321 323 319 316 313 312 315 318 319 317 315 314 310 306 297 278 259 245 237 235 240 244 241 240 241 237 229 221 225 231 235 237 239 244 247 252
335 331 327 319 317 318 320 319 319 319 318 315 315 318 322 320 317 316 316 313 308 302 296 280 263 248 240 241 245 248 247 246 247 241 228 224 226 232 237 240 244 248 251
336 335 331 327 322 322 319 317 317 318 315 313 313 315 316 315 314 313 316 319 316 306 301 290 281 270 257 256 253 249 249 251 252 253 246 226 224 232 237 242 245 248 251
Height
1452 1452 1453 1454 1455 1456 1457 1458 1459 1460 1461 1462 1463 1465 1466 1467 1469 1470 1471 1473 1474 1475 1476 1477 1478 1480 1481 1482 1483 1484 1485 1486 1485 1484 1486 1487 1487 1488 1488 1488 1488 1489 1490
1447 1447 1448 1449 1450 1450 1451 1452 1453 1454 1455 1456 1457 1459 1460 1461 1462 1464 1465 1466 1468 1469 1470 1471 1472 1474 1475 1476 1477 1478 1479 1480 1481 1479 1480 1480 1481 1482 1482 1483 1483 1483 1484
1442 1442 1442 1443 1444 1444 1445 1446 1447 1448 1449 1450 1451 1452 1453 1455 1456 1457 1459 1460 1461 1462 1464 1465 1466 1468 1468 1470 1471 1472 1473 1474 1475 1475 1474 1475 1475 1477 1477 1477 1477 1477 1478
1437 1437 1437 1437 1438 1439 1439 1440 1441 1442 1443 1444 1445 1446 1447 1448 1450 1451 1452 1454 1455 1456 1457 1458 1460 1461 1462 1464 1465 1466 1467 1468 1469 1470 1469 1469 1470 1471 1471 1471 1471 1472 1472
1432 1432 1432 1432 1433 1434 1434 1435 1436 1436 1437 1438 1439 1440 1441 1442 1443 1445 1446 1447 1449 1450 1451 1452 1453 1455 1456 1458 1459 1460 1461 1462 1463 1464 1464 1464 1464 1465 1466 1466 1466 1466 1466
1427 1427 1427 1427 1428 1428 1428 1429 1430 1430 1431 1432 1433 1434 1435 1436 1437 1439 1440 1441 1442 1443 1444 1446 1447 1448 1449 1451 1453 1454 1455 1456 1457 1458 1459 1459 1459 1460 1461 1461 1461 1460 1460
1423 1422 1422 1422 1422 1422 1423 1424 1424 1425 1426 1426 1427 1428 1429 1430 1431 1433 1434 1435 1436 1437 1439 1439 1440 1442 1444 1444 1446 1447 1448 1450 1451 1452 1453 1453 1453 1454 1455 1455 1455 1455 1454
1418 1418 1418 1417 1417 1418 1418 1418 1419 1420 1420 1421 1422 1422 1423 1424 1426 1427 1428 1430 1430 1431 1433 1433 1434 1435 1437 1438 1439 1440 1441 1442 1444 1445 1445 1446 1447 1449 1449 1449 1449 1448 1448
1413 1413 1413 1413 1413 1413 1413 1413 1414 1414 1415 1416 1417 1417 1418 1419 1420 1421 1423 1423 1424 1425 1426 1427 1429 1430 1431 1433 1434 1434 1435 1436 1437 1439 1439 1440 1441 1443 1443 1444 1443 1443 1442
1408 1408 1408 1408 1408 1408 1408 1408 1409 1410 1410 1411 1412 1413 1413 1413 1414 1416 1417 1418 1418 1419 1420 1421 1422 1424 1425 1426 1427 1428 1428 1429 1431 1432 1433 1434 1435 1436 1437 1437 1437 1437 1436
1404 1404 1404 1404 1403 1403 1403 1404 1404 1405 1406 1406 1407 1407 1408 1408 1409 1410 1411 1412 1412 1413 1414 1415 1416 1418 1419 1420 1421 1422 1422 1424 1425 1426 1427 1427 1428 1429 1429 1430 1431 1431 1430
1400 1399 1399 1399 1399 1399 1399 1399 1400 1401 1401 1401 1401 1402 1402 1403 1403 1404 1405 1406 1407 1408 1408 1409 1410 1412 1413 1414 1415 1416 1418 1419 1419 1420 1420 1420 1421 1421 1422 1423 1424 1424 1424
1395 1395 1395 1395 1395 1395 1395 1395 1395 1396 1396 1396 1397 1396 1397 1397 1397 1398 1399 1400 1402 1403 1403 1403 1405 1406 1407 1408 1409 1411 1412 1412 1413 1413 1413 1414 1415 1416 1416 1417 1417 1417 1417
1391 1391 1391 1390 1391 1391 1391 1391 1391 1391 1391 1392 1392 1392 1392 1392 1392 1393 1393 1394 1395 1396 1397 1397 1399 1400 1401 1402 1404 1405 1406 1406 1407 1407 1407 1408 1409 1410 1410 1410 1410 1410 1410
1388 1387 1387 1387 1387 1387 1387 1387 1387 1387 1387 1388 1387 1387 1387 1386 1387 1388 1388 1388 1389 1390 1391 1391 1392 1393 1394 1396 1397 1398 1399 1400 1401 1401 1402 1402 1403 1404 1404 1404 1404 1404 1404
1384 1384 1384 1383 1383 1383 1383 1383 1383 1384 1384 1384 1384 1384 1383 1383 1382 1382 1382 1383 1383 1385 1385 1385 1386 1386 1388 1389 1391 1391 1392 1394 1394 1395 1396 1396 1397 1398 1398 1398 1399 1399 1398
1382 1381 1380 1380 1380 1380 1379 1379 1379 1379 1380 1380 1379 1379 1378 1378 1377 1377 1377 1377 1377 1378 1379 1378 1379 1380 1381 1383 1384 1385 1386 1387 1389 1390 1390 1391 1392 1392 1392 1393 1393 1393 1393
1379 1378 1378 1377 1377 1376 1376 1376 1376 1375 1375 1374 1375 1374 1374 1373 1372 1372 1372 1372 1371 1372 1372 1372 1373 1374 1375 1376 1378 1379 1380 1381 1383 1384 1384 1386 1387 1387 1387 1387 1387 1387 1387
1377 1376 1376 1375 1374 1374 1374 1374 1373 1373 1372 1371 1370 1370 1370 1369 1368 1368 1367 1367 1366 1366 1367 1367 1368 1368 1369 1370 1372 1373 1374 1375 1377 1378 1379 1380 1381 1381 1381 1381 1381 1381 1381
1375 1374 1374 1373 1372 1372 1371 1371 1371 1370 1369 1369 1368 1367 1366 1365 1364 1363 1363 1362 1362 1361 1362 1362 1362 1363 1364 1365 1366 1367 1368 1370 1371 1372 1373 1374 1375 1375 1375 1375 1375 1375 1375
1373 1372 1371 1371 1370 1370 1369 1369 1368 1368 1367 1366 1365 1364 1364 1362 1361 1359 1359 1358 1357 1357 1357 1357 1357 1358 1359 1359 1360 1362 1363 1364 1365 1366 1367 1368 1369 1370 1370 1370 1370 1370 1370
1372 1371 1370 1369 1368 1368 1367 1367 1366 1365 1364 1363 1362 1361 1360 1359 1358 1356 1355 1354 1353 1353 1353 1353 1353 1353 1354 1354 1355 1356 1357 1358 1359 1361 1362 1363 1363 1364 1364 1365 1365 1365 1365
1371 1370 1369 1368 1367 1366 1365 1365 1364 1363 1362 1361 1360 1359 1357 1356 1355 1353 1352 1351 1350 1349 1349 1348 1348 1348 1349 1349 1350 1351 1352 1352 1354 1355 1356 1357 1357 1358 1359 1359 1359 1359 1359
1371 1369 1368 1367 1366 1365 1364 1363 1362 1361 1360 1359 1358 1357 1355 1354 1352 1351 1349 1348 1346 1345 1345 1344 1344 1344 1344 1344 1345 1346 1347 1348 1349 1350 1351 1351 1352 1352 1353 1353 1353 1354 1354
1370 1368 1367 1366 1365 1364 1363 1362 1361 1360 1359 1357 1356 1355 1353 1352 1350 1348 1347 1345 1343 1342 1341 1340 1340 1340 1339 1340 1340 1341 1342 1343 1344 1345 1346 1346 1347 1347 1348 1348 1348 1348 1348
1369 1367 1366 1365 1364 1363 1362 1361 1360 1359 1357 1356 1354 1353 1351 1350 1348 1346 1344 1342 1341 1339 1338 1337 1336 1336 1335 1335 1335 1335 1336 1337 1338 1339 1340 1341 1341 1341 1342 1342 1343 1343 1343